EN

Hourly Weather Al Mafraq

Today, 21 January, Thursday

Time Temperature Precipitation Wind Pressure Humidity
00:00 +3°C° 0 mm 4 mps 707 mmHg 74%
01:00 +1°C° 0 mm 4 mps 707 mmHg 73%
02:00 +2°C° 0 mm 3 mps 707 mmHg 72%
03:00 +3°C° 0 mm 2 mps 708 mmHg 73%
04:00 +3°C° 0 mm 2 mps 708 mmHg 74%
05:00 +3°C° 0 mm 2 mps 708 mmHg 74%
06:00 +3°C° 0 mm 2 mps 709 mmHg 72%
07:00 +5°C° 0 mm 1 mps 709 mmHg 70%
08:00 +5°C° 0 mm 1 mps 709 mmHg 68%
09:00 +6°C° 0 mm 1 mps 710 mmHg 63%
10:00 +7°C° 0 mm 1 mps 710 mmHg 58%
11:00 +8°C° 0 mm 1 mps 711 mmHg 54%
12:00 +9°C° 0 mm 1 mps 710 mmHg 51%
13:00 +9°C° 0 mm 2 mps 710 mmHg 48%
14:00 +9°C° 0 mm 2 mps 709 mmHg 46%
15:00 +9°C° 0 mm 2 mps 710 mmHg 50%
16:00 +9°C° 0 mm 1 mps 710 mmHg 54%
17:00 +9°C° 0 mm 1 mps 710 mmHg 59%
18:00 +8°C° 0 mm 1 mps 710 mmHg 61%
19:00 +8°C° 0 mm 1 mps 710 mmHg 63%
20:00 +7°C° 0 mm 1 mps 710 mmHg 65%
21:00 +7°C° 0 mm 1 mps 710 mmHg 62%
22:00 +6°C° 0 mm 2 mps 710 mmHg 59%
23:00 +6°C° 0 mm 2 mps 710 mmHg 56%

Tomorrow, 22 January, Friday

Time Temperature Precipitation Wind Pressure Humidity
00:00 +5°C° 0 mm 2 mps 709 mmHg 54%
01:00 +4°C° 0 mm 3 mps 709 mmHg 53%
02:00 +4°C° 0 mm 3 mps 709 mmHg 51%
03:00 +3°C° 0 mm 3 mps 709 mmHg 50%
04:00 +3°C° 0 mm 4 mps 709 mmHg 48%
05:00 +3°C° 0 mm 4 mps 709 mmHg 47%
06:00 +2°C° 0 mm 5 mps 709 mmHg 45%
07:00 +2°C° 0 mm 5 mps 709 mmHg 43%
08:00 +3°C° 0 mm 6 mps 709 mmHg 42%
09:00 +4°C° 0 mm 6 mps 709 mmHg 37%
10:00 +5°C° 0 mm 7 mps 709 mmHg 33%
11:00 +6°C° 0 mm 8 mps 709 mmHg 28%
12:00 +8°C° 0 mm 7 mps 708 mmHg 27%
13:00 +9°C° 0 mm 7 mps 708 mmHg 26%
14:00 +9°C° 0 mm 7 mps 707 mmHg 24%
15:00 +9°C° 0 mm 6 mps 707 mmHg 26%
16:00 +8°C° 0 mm 5 mps 707 mmHg 29%
17:00 +7°C° 0 mm 4 mps 706 mmHg 31%
18:00 +7°C° 0 mm 4 mps 706 mmHg 32%
19:00 +6°C° 0 mm 4 mps 706 mmHg 33%
20:00 +6°C° 0 mm 4 mps 706 mmHg 34%
21:00 +6°C° 0 mm 5 mps 707 mmHg 34%
22:00 +5°C° 0 mm 5 mps 707 mmHg 34%
23:00 +5°C° 0 mm 5 mps 707 mmHg 35%

Day after tomorrow, 23 January, Saturday

Time Temperature Precipitation Wind Pressure Humidity
00:00 +5°C° 0 mm 5 mps 706 mmHg 36%
01:00 +3°C° 0 mm 5 mps 706 mmHg 37%
02:00 +3°C° 0 mm 5 mps 705 mmHg 39%
03:00 +3°C° 0 mm 5 mps 705 mmHg 40%
04:00 +2°C° 0 mm 5 mps 705 mmHg 41%
05:00 +2°C° 0 mm 5 mps 705 mmHg 41%
06:00 +2°C° 0 mm 5 mps 705 mmHg 41%
07:00 +3°C° 0 mm 5 mps 706 mmHg 40%
08:00 +3°C° 0 mm 5 mps 706 mmHg 39%
09:00 +4°C° 0 mm 6 mps 706 mmHg 35%
10:00 +7°C° 0 mm 6 mps 706 mmHg 31%
11:00 +8°C° 0 mm 7 mps 706 mmHg 27%
12:00 +9°C° 0 mm 7 mps 705 mmHg 27%
13:00 +10°C° 0 mm 6 mps 705 mmHg 26%
14:00 +10°C° 0 mm 6 mps 704 mmHg 25%
15:00 +10°C° 0 mm 5 mps 704 mmHg 28%
16:00 +9°C° 0 mm 5 mps 704 mmHg 30%
17:00 +8°C° 0 mm 4 mps 704 mmHg 32%
18:00 +8°C° 0 mm 4 mps 704 mmHg 33%
19:00 +7°C° 0 mm 4 mps 704 mmHg 34%
20:00 +7°C° 0 mm 4 mps 705 mmHg 36%
21:00 +7°C° 0 mm 4 mps 705 mmHg 36%
22:00 +6°C° 0 mm 5 mps 705 mmHg 36%
23:00 +6°C° 0 mm 5 mps 705 mmHg 36%

24 January, Sunday

Time Temperature Precipitation Wind Pressure Humidity
00:00 +6°C° 0 mm 5 mps 704 mmHg 38%
01:00 +5°C° 0 mm 5 mps 704 mmHg 40%
02:00 +5°C° 0 mm 4 mps 704 mmHg 42%
03:00 +4°C° 0 mm 4 mps 704 mmHg 42%
04:00 +4°C° 0 mm 4 mps 704 mmHg 43%
05:00 +4°C° 0 mm 4 mps 704 mmHg 44%
06:00 +4°C° 0 mm 4 mps 704 mmHg 43%
07:00 +5°C° 0 mm 4 mps 704 mmHg 43%
08:00 +5°C° 0 mm 4 mps 705 mmHg 43%
09:00 +7°C° 0 mm 4 mps 705 mmHg 39%
10:00 +8°C° 0 mm 5 mps 705 mmHg 35%
11:00 +10°C° 0 mm 6 mps 705 mmHg 31%
12:00 +12°C° 0 mm 5 mps 705 mmHg 30%
13:00 +13°C° 0 mm 5 mps 704 mmHg 29%
14:00 +14°C° 0 mm 5 mps 704 mmHg 28%
15:00 +13°C° 0 mm 4 mps 703 mmHg 31%
16:00 +12°C° 0 mm 4 mps 703 mmHg 34%
17:00 +10°C° 0 mm 3 mps 703 mmHg 37%
18:00 +10°C° 0 mm 2 mps 703 mmHg 39%
19:00 +9°C° 0 mm 2 mps 704 mmHg 41%
20:00 +10°C° 0 mm 1 mps 704 mmHg 44%
21:00 +9°C° 0 mm 1 mps 704 mmHg 44%
22:00 +9°C° 0 mm 1 mps 704 mmHg 45%
23:00 +9°C° 0 mm 1 mps 704 mmHg 46%

25 January, Monday

Time Temperature Precipitation Wind Pressure Humidity
00:00 +8°C° 0 mm 1 mps 704 mmHg 46%
01:00 +7°C° 0 mm 2 mps 704 mmHg 46%
02:00 +7°C° 0 mm 2 mps 704 mmHg 46%
03:00 +7°C° 0 mm 2 mps 703 mmHg 47%
04:00 +7°C° 0 mm 2 mps 703 mmHg 47%
05:00 +6°C° 0 mm 2 mps 703 mmHg 47%
06:00 +7°C° 0 mm 2 mps 704 mmHg 47%
07:00 +7°C° 0 mm 2 mps 704 mmHg 46%
08:00 +8°C° 0 mm 2 mps 705 mmHg 46%
09:00 +10°C° 0 mm 2 mps 705 mmHg 42%
10:00 +11°C° 0 mm 3 mps 705 mmHg 37%
11:00 +13°C° 0 mm 3 mps 705 mmHg 32%
12:00 +13°C° 0 mm 3 mps 705 mmHg 31%
13:00 +15°C° 0 mm 2 mps 705 mmHg 30%
14:00 +16°C° 0 mm 2 mps 704 mmHg 29%
15:00 +15°C° 0 mm 1 mps 704 mmHg 34%
16:00 +14°C° 0 mm 1 mps 704 mmHg 40%
17:00 +12°C° 0 mm 1 mps 704 mmHg 45%
18:00 +11°C° 0 mm 0 mps 704 mmHg 46%
19:00 +10°C° 0 mm 0 mps 704 mmHg 48%
20:00 +10°C° 0 mm 0 mps 704 mmHg 49%
21:00 +9°C° 0 mm 0 mps 704 mmHg 49%
22:00 +9°C° 0 mm 0 mps 704 mmHg 48%
23:00 +9°C° 0 mm 0 mps 704 mmHg 47%

26 January, Tuesday

Time Temperature Precipitation Wind Pressure Humidity
00:00 +10°C° 0 mm 1 mps 704 mmHg 46%
01:00 +10°C° 0 mm 1 mps 704 mmHg 45%
02:00 +9°C° 0 mm 2 mps 704 mmHg 43%
03:00 +9°C° 0 mm 2 mps 704 mmHg 43%
04:00 +9°C° 0 mm 2 mps 704 mmHg 44%
05:00 +9°C° 0 mm 3 mps 703 mmHg 44%
06:00 +9°C° 0 mm 3 mps 704 mmHg 45%
07:00 +9°C° 0 mm 3 mps 704 mmHg 46%
08:00 +10°C° 0 mm 4 mps 704 mmHg 47%
09:00 +11°C° 0 mm 4 mps 704 mmHg 43%
10:00 +12°C° 0 mm 5 mps 704 mmHg 39%
11:00 +14°C° 0 mm 6 mps 704 mmHg 35%
12:00 +14°C° 0 mm 5 mps 703 mmHg 34%
13:00 +15°C° 0 mm 4 mps 703 mmHg 33%
14:00 +17°C° 0 mm 3 mps 703 mmHg 32%
15:00 +16°C° 0 mm 2 mps 702 mmHg 37%
16:00 +15°C° 0 mm 1 mps 702 mmHg 42%
17:00 +14°C° 0 mm 1 mps 702 mmHg 47%
18:00 +13°C° 0 mm 1 mps 702 mmHg 50%
19:00 +13°C° 0 mm 1 mps 702 mmHg 52%
20:00 +12°C° 0 mm 1 mps 702 mmHg 54%
21:00 +12°C° 0 mm 1 mps 702 mmHg 54%
22:00 +11°C° 0 mm 1 mps 702 mmHg 53%
23:00 +11°C° 0 mm 1 mps 701 mmHg 53%
Show more